Change the Weather History Date:

Saturday, December 8, 2012

  Actual Average Record
Temperature  
Mean Temperature 40 °F 35 °F  
Max Temperature 60 °F 50 °F 81 °F (1970)
Min Temperature 19 °F 20 °F -5 °F (2005)
Degree Days  
Heating Degree Days 25 30  
Month to date heating degree days 136 232  
Since 1 July heating degree days 944 1227  
Cooling Degree Days 0 0  
Month to date cooling degree days 0 0  
Year to date cooling degree days 1648 1138  
Moisture  
Dew Point 23 °F    
Average Humidity 55    
Maximum Humidity 82    
Minimum Humidity 28    
Precipitation  
Precipitation 0.00 in 0.01 in 0.13 in (1980)
Month to date precipitation 0.00 0.13  
Year to date precipitation 6.35 17.18  
Snow  
Snow 0.00 in 0.20 in 1.10 in (1980)
Month to date snowfall 0.0 1.0  
Since 1 July snowfall 0.0 2.9  
Snow Depth 0.00 in    
Sea Level Pressure  
Sea Level Pressure 29.81 in    
Wind  
Wind Speed 10 mph (WSW)    
Max Wind Speed 22 mph    
Max Gust Speed 26 mph    
Visibility 10 miles    
Events      
T = Trace of Precipitation, MM = Missing Value Source: NWS Daily Summary

Daily Weather History Graph

Daily Weather History Graph

Search for Another Location

Airport or City:

Trip Planner

Search our weather history database for the weather conditions in past years. The results will help you decide how hot, cold, wet, or windy it might be!

Date:

Astronomy

Dec. 08, 2012 Rise Set
Actual Time 7:48 AM CST 5:35 PM CST
Civil Twilight 7:20 AM CST 6:04 PM CST
Nautical Twilight 6:48 AM CST 6:36 PM CST
Astronomical Twilight 6:17 AM CST 7:07 PM CST
Moon 2:23 AM CST (12/8) 2:00 PM CST (12/8)
Length of Visible Light 10h 43m
Length of Day
9h 47m
Waning Crescent, 28% of the Moon is Illuminated
Dec 8
Waning Crescent
Dec 13
New
Dec 19
First Quarter
Dec 28
Full
Jan 4
Last Quarter

Hourly Weather History & Observations

Time (CST) Temp. Windchill Dew Point Humidity Pressure Visibility Wind Dir Wind Speed Gust Speed Precip Events Conditions
12:53 AM 32.0 °F 24.2 °F 21.9 °F 66% 29.94 in 10.0 mi NNE 9.2 mph - N/A   Clear
1:53 AM 33.1 °F 25.5 °F 21.9 °F 64% 29.91 in 10.0 mi North 9.2 mph - N/A   Clear
2:53 AM 30.9 °F 24.3 °F 21.9 °F 69% 29.91 in 10.0 mi North 6.9 mph - N/A   Clear
3:53 AM 28.9 °F 21.1 °F 21.0 °F 72% 29.91 in 10.0 mi North 8.1 mph - N/A   Clear
4:53 AM 27.0 °F 18.7 °F 19.9 °F 75% 29.91 in 10.0 mi NNW 8.1 mph - N/A   Clear
5:53 AM 26.1 °F 19.4 °F 19.0 °F 75% 29.92 in 10.0 mi NNW 5.8 mph - N/A   Clear
6:53 AM 24.1 °F 19.7 °F 18.0 °F 77% 29.93 in 10.0 mi NW 3.5 mph - N/A   Clear
7:53 AM 23.0 °F 18.4 °F 17.1 °F 78% 29.93 in 10.0 mi NW 3.5 mph - N/A   Clear
8:53 AM 27.0 °F 20.5 °F 19.0 °F 72% 29.93 in 10.0 mi NW 5.8 mph - N/A   Scattered Clouds
9:00 AM 28.4 °F 21.2 °F 19.4 °F 69% 29.92 in 10.0 mi NW 6.9 mph - N/A   Mostly Cloudy
9:48 AM 33.8 °F - 23.0 °F 65% 29.90 in 10.0 mi Calm Calm - N/A   Overcast
9:53 AM 34.0 °F 28.8 °F 24.1 °F 67% 29.90 in 10.0 mi South 5.8 mph - N/A   Overcast
10:53 AM 36.0 °F 28.5 °F 30.0 °F 79% 29.91 in 5.0 mi South 10.4 mph - N/A   Haze
11:15 AM 35.6 °F 28.6 °F 28.4 °F 75% 29.88 in 5.0 mi South 9.2 mph - N/A   Haze
11:53 AM 39.0 °F 32.8 °F 30.0 °F 70% 29.85 in 7.0 mi SSW 9.2 mph 18.4 mph N/A   Overcast
12:17 PM 41.0 °F 34.3 °F 28.4 °F 61% 29.82 in 9.0 mi SSW 11.5 mph - N/A   Scattered Clouds
12:53 PM 44.1 °F 37.4 °F 28.9 °F 55% 29.77 in 10.0 mi SSW 13.8 mph - N/A   Clear
1:53 PM 50.0 °F - 28.9 °F 44% 29.71 in 10.0 mi SSW 18.4 mph 25.3 mph N/A   Clear
2:53 PM 54.0 °F - 27.0 °F 35% 29.66 in 10.0 mi SW 16.1 mph 24.2 mph N/A   Clear
3:53 PM 59.0 °F - 26.1 °F 28% 29.63 in 10.0 mi SSW 19.6 mph - N/A   Clear
4:53 PM 57.9 °F - 25.0 °F 28% 29.63 in 10.0 mi SSW 13.8 mph - N/A   Clear
5:53 PM 48.0 °F - 23.0 °F 37% 29.66 in 10.0 mi South 10.4 mph - N/A   Clear
6:53 PM 42.1 °F 36.1 °F 21.9 °F 45% 29.68 in 10.0 mi SSW 10.4 mph - N/A   Clear
7:53 PM 48.0 °F - 19.0 °F 32% 29.66 in 10.0 mi SW 13.8 mph - N/A   Clear
8:53 PM 46.9 °F - 17.1 °F 30% 29.67 in 10.0 mi WSW 15.0 mph - N/A   Clear
9:53 PM 46.0 °F 39.9 °F 19.0 °F 34% 29.66 in 10.0 mi West 13.8 mph - N/A   Clear
10:53 PM 41.0 °F 37.1 °F 19.0 °F 41% 29.70 in 10.0 mi North 5.8 mph - N/A   Clear
11:53 PM 46.0 °F 39.9 °F 17.1 °F 31% 29.70 in 10.0 mi WNW 13.8 mph - N/A   Clear